Flag for India Weather past 2 weeks in Chennai, Tamil Nadu, India

Now
82 °F

Scattered clouds.


Feels Like: 85 °F
Forecast: 72 / 80 °F
Wind: 9 mph from Northeast

Location: Madras / Minambakkam

Current Time: Dec 25, 2014 at 4:20:52 PM

Latest Report: Dec 25, 2014 at 3:40 PM


Visibility: 4 mi

Pressure: 29.86 "Hg

Humidity: 62%

Dew point: 68 °F

Location of ChennaiLocation

Historic Weather in Chennai — Graph

°F

Chennai temperature yesterday

Maximum temperature yesterday: 84 °F (at 10:40 AM)
Minimum temperature yesterday: 72 °F (at 5:40 AM)
Average temperature yesterday: 78 °F

Past Weeks' High & Low Weather Summary

 TemperatureHumidityPressure
High88 °F (Dec 11, 1:40 PM)100% (Dec 11, 1:40 AM)30.04 "Hg (Dec 11, 1:40 AM)
Low70 °F (Dec 20, 6:40 AM)48% (Dec 25, 11:40 AM)29.80 "Hg (Dec 21, 3:40 PM)
Average79 °F82%29.91 "Hg
* Reported Dec 10 2:40 PM — Dec 25 3:10 PM, Chennai, Weather by CustomWeather, © 2014

Note: Actual official high and low records may vary slightly from our data, if they occured in-between our weather recording intervals... More about our weather records

Advertising

Chennai weather history for previous 24 hours

 ConditionsComfort  
Time TempWeatherWind HumidityBarometerVisibility
3:10 PM
Dec 25
82 °FScattered clouds.13 mph62%29.86 "Hg4 mi
2:40 PM82 °FScattered clouds.12 mph58%29.86 "Hg4 mi
1:10 PM82 °FPassing clouds.9 mph58%29.92 "Hg5 mi
12:40 PM84 °FPassing clouds.9 mph51%29.92 "Hg5 mi
11:40 AM84 °FPassing clouds.9 mph48%29.95 "Hg5 mi
10:40 AM82 °FPassing clouds.12 mph58%29.98 "Hg4 mi
9:40 AM79 °FHaze.9 mph70%29.98 "Hg3 mi
9:10 AM77 °FFog.6 mph79%29.98 "Hg2 mi
8:40 AM75 °FFog.9 mph78%29.98 "Hg2 mi
7:40 AM73 °FFog.6 mph89%29.98 "Hg1 mi
7:10 AM73 °FFog.3 mph89%29.95 "Hg1 mi
6:40 AM73 °FFog.3 mph89%29.92 "Hg1 mi
5:40 AM73 °FFog.No wind94%29.92 "Hg2 mi
5:10 AM73 °FFog.No wind94%29.89 "Hg2 mi
4:40 AM73 °FFog.3 mph94%29.89 "Hg2 mi
3:40 AM73 °FFog.No wind94%29.89 "Hg3 mi
3:10 AM73 °FFog.No wind94%29.89 "Hg3 mi
2:40 AM73 °FFog.No wind94%29.92 "Hg3 mi
2:10 AM73 °FFog.No wind94%29.92 "Hg3 mi
1:10 AM75 °FPassing clouds.No wind89%29.95 "Hg4 mi
12:40 AM75 °FPassing clouds.No wind89%29.95 "Hg4 mi
11:40 PM
Dec 24
75 °FPassing clouds.No wind89%29.95 "Hg4 mi
11:10 PM77 °FPassing clouds.No wind83%29.98 "Hg4 mi
10:40 PM77 °FPassing clouds.3 mph83%29.98 "Hg4 mi
10:10 PM77 °FPassing clouds.5 mph83%29.98 "Hg4 mi
9:40 PM79 °FPassing clouds.5 mph79%29.98 "Hg4 mi
8:40 PM79 °FPassing clouds.6 mph79%29.98 "Hg4 mi
8:10 PM79 °FPassing clouds.3 mph79%29.95 "Hg4 mi
7:40 PM79 °FPassing clouds.6 mph79%29.95 "Hg4 mi
6:40 PM79 °FFog.8 mph79%29.92 "Hg3 mi
6:10 PM79 °FFog.12 mph74%29.92 "Hg3 mi
5:40 PM79 °FScattered clouds.14 mph79%29.92 "Hg4 mi
4:40 PM81 °FPassing clouds.12 mph70%29.89 "Hg4 mi
Weather by CustomWeather, © 2014

See weather overviewHow to use our weather pages